[[{"header":{"parameterUnit":"m.s-1","parameterCategory":1,"la1":30.2991,"la2":30.254,"lo1":-89.0895,"lo2":-89.0444,"dy":0.0017,"dx":0.0017,"nx":28,"ny":28,"refTime":"2025-09-10T21:00:00:Z","depth":0,"parameterNumber":2,"parameterNumberName":"U-component_of_WINDS"},"data":[0,0,0,0,0,0,0,0,0,0,0,0,0,0,0,0,0,0,0,0,0,0,0,0,0,0,0,0,0,0,0,0,0,0,0,0,0,0,0,0,0,0,0,0,0,0,0,0,0,0,0,0,0,0,0,0,0,0,1.5155,1.5155,0,1.5143,1.5143,1.5143,1.5103,1.5102,1.5101,1.51,1.5088,1.5089,1.5089,0,0,0,0,0,0,0,0,0,0,0,0,0,1.5145,1.5145,1.5155,1.5155,1.5155,1.5143,1.5143,1.5143,1.5103,1.5102,1.5101,1.51,1.5088,1.5089,1.5089,0,0,0,0,0,0,0,0,0,0,0,0,0,1.5143,1.5145,1.5155,1.5134,1.5131,1.5143,1.5143,1.5143,1.5103,1.5102,1.51,1.5099,1.5088,1.5089,1.5089,1.5121,0,0,1.5092,1.5092,0,0,0,0,0,0,0,0,1.5143,1.5143,1.5137,1.5135,1.5133,1.5123,1.5135,1.5136,1.5103,1.5114,1.51,1.5098,1.5101,1.5101,1.5101,1.5121,1.512,1.5092,1.5092,1.5093,1.5093,0,0,0,0,0,0,0,1.5143,1.5144,1.515,1.5137,1.5134,1.5125,1.5123,1.5135,1.5115,1.5113,1.511,1.5109,1.51,1.5101,1.5101,1.512,1.5092,1.5093,1.5093,1.5093,1.5165,1.5167,0,0,0,0,0,0,1.5146,1.5144,1.5151,1.515,1.5135,1.5126,1.5124,1.5128,1.5115,1.5112,1.511,1.5107,1.51,1.51,1.51,1.5136,1.5093,1.5094,1.5094,1.5164,1.5166,1.5167,0,0,0,0,0,0,1.5146,1.5147,1.5151,1.5146,1.5146,1.5128,1.5132,1.5128,1.5129,1.5113,1.5109,1.5115,1.5099,1.5099,1.5116,1.5135,1.5094,1.5095,1.5162,1.5165,1.5167,1.5209,0,0,0,0,0,0,1.5146,1.5148,1.5159,1.5147,1.5146,1.5167,1.5133,1.5129,1.513,1.5126,1.5116,1.5113,1.5098,1.5115,1.5117,1.5136,1.5095,1.516,1.5163,1.5166,1.5206,1.5212,1.5218,0,0,0,0,0,1.5146,1.5172,1.516,1.5161,1.516,1.5169,1.5168,1.515,1.5132,1.5144,1.5134,1.5114,1.5133,1.5118,1.5119,1.5138,1.5159,1.5163,1.5166,1.5203,1.5211,1.5218,0,0,0,0,0,0,1.5187,1.517,1.5156,1.5179,1.5175,1.5162,1.5176,1.5159,1.5161,1.5157,1.5134,1.5132,1.5153,1.5147,1.513,1.5169,1.5143,1.5147,1.5171,1.5178,1.5184,1.5185,1.5096,0,0,0,0,0,1.5198,1.5206,1.5191,1.5212,1.5211,1.5194,1.5197,1.5183,1.5179,1.5177,1.5168,1.5165,1.517,1.5174,1.5179,1.5206,1.5203,1.522,1.5226,1.5231,1.5234,1.5247,1.5255,1.5178,1.5178,1.5178,0,0,1.5222,1.5214,1.522,1.522,1.5216,1.5225,1.5193,1.5204,1.521,1.5179,1.5194,1.5188,1.5183,1.5205,1.5214,1.5201,1.5255,1.5235,1.5239,1.5239,1.5251,1.5259,1.5265,1.518,1.518,1.5179,0,0,1.527,1.5265,1.5282,1.5278,1.5272,1.5261,1.5265,1.5254,1.5249,1.5264,1.5241,1.5249,1.5259,1.5256,1.5256,1.5304,1.5286,1.5306,1.5337,1.5351,1.5357,1.5362,1.5379,1.5385,1.531,1.531,1.531,0,1.53,1.5312,1.5293,1.5304,1.5305,1.5278,1.5295,1.5293,1.5289,1.529,1.5276,1.5288,1.5283,1.5304,1.5316,1.5317,1.5321,1.5306,1.5358,1.5363,1.5367,1.5383,1.5389,1.5312,1.5312,1.5312,1.5311,0,1.5349,1.5358,1.5373,1.5369,1.5372,1.5387,1.537,1.5375,1.5362,1.5352,1.5368,1.5361,1.5363,1.5368,1.5355,1.5387,1.5379,1.5362,1.5335,1.5377,1.5391,1.5397,1.5316,1.5315,1.5314,1.5314,0,0,1.542,1.5407,1.5412,1.5411,1.5403,1.5409,1.5423,1.5425,1.543,1.5429,1.544,1.5449,1.5433,1.5433,1.542,1.5432,1.547,1.5413,1.5413,1.5423,1.5505,1.5517,1.5524,1.5459,1.546,1.5461,1.5505,0,1.5465,1.5487,1.547,1.5495,1.5503,1.5478,1.5491,1.5487,1.5479,1.5485,1.5476,1.5483,1.5462,1.5461,1.5473,1.5463,1.5486,1.546,1.5468,1.5469,1.5469,1.5532,1.5544,1.5586,1.5511,1.5511,1.5512,0,1.5519,1.552,1.5546,1.5536,1.5539,1.555,1.5551,1.5557,1.5553,1.5547,1.5547,1.5531,1.5544,1.552,1.5538,1.552,1.5523,1.5519,1.5521,1.5519,1.5492,1.5531,1.5599,1.5605,1.5521,1.552,1.5519,0,1.5567,1.5575,1.5591,1.5591,1.5581,1.5589,1.5585,1.558,1.5583,1.5584,1.5585,1.5588,1.559,1.5593,1.5578,1.5561,1.5598,1.5572,1.5592,1.5592,1.5599,1.5599,1.5668,1.5604,1.5604,1.5603,1.5603,0,1.5617,1.5633,1.5612,1.5622,1.564,1.5622,1.5641,1.5635,1.5631,1.5639,1.5619,1.5627,1.5608,1.5614,1.5603,1.562,1.5621,1.5615,1.5612,1.5616,1.5617,1.5617,1.5613,1.5605,1.5605,1.5604,1.5604,0,1.5672,1.5659,1.5675,1.5665,1.5663,1.5677,1.5668,1.5677,1.5668,1.5679,1.5681,1.5667,1.5674,1.566,1.5665,1.5657,1.568,1.5673,1.5681,1.5678,1.5699,1.5697,1.5769,1.5777,1.5709,1.571,1.571,0,1.5704,1.5717,1.5708,1.5712,1.571,1.5717,1.5719,1.5703,1.5706,1.5703,1.5713,1.5718,1.5721,1.5733,1.5724,1.5728,1.572,1.5745,1.572,1.5724,1.5718,1.5717,1.5718,1.5749,1.575,1.5751,1.5751,0,1.5763,1.5756,1.576,1.5762,1.5766,1.5767,1.5767,1.5772,1.5754,1.5759,1.5766,1.5768,1.5774,1.5779,1.5781,1.5778,1.5761,1.576,1.5764,1.5768,1.5772,1.5769,1.5693,1.5757,1.5757,1.5756,1.5756,1.5756,1.5806,1.5816,1.5811,1.5817,1.5815,1.5816,1.5823,1.5816,1.5821,1.5824,1.5814,1.5823,1.582,1.5821,1.582,1.5827,1.5815,1.5822,1.5824,1.5825,1.5828,1.5772,1.5827,1.5827,1.5827,1.5827,1.5826,0,1.5862,1.5858,1.5864,1.5864,1.5869,1.5854,1.5853,1.5858,1.5866,1.5865,1.5868,1.5876,1.5882,1.5873,1.5877,1.5885,1.5877,1.5886,1.5885,1.5884,1.5838,1.5833,1.5892,1.5892,1.5892,1.5892,1.5892,1.5892,1.5892,1.5907,1.59,1.5914,1.591,1.5919,1.592,1.592,1.5919,1.5929,1.5933,1.5928,1.5923,1.5927,1.5931,1.5929,1.5931,1.5942,1.5937,1.5894,1.5887,1.5881,1.5876,1.5943,1.5943,1.5981,1.5982,1.5982]},{"header":{"parameterUnit":"m.s-1","parameterCategory":1,"la1":30.2991,"la2":30.254,"lo1":-89.0895,"lo2":-89.0444,"dy":0.0017,"dx":0.0017,"nx":28,"ny":28,"refTime":"2025-09-10T21:00:00:Z","depth":0,"parameterNumber":3,"parameterNumberName":"V-component_of_WINDS"},"data":[0,0,0,0,0,0,0,0,0,0,0,0,0,0,0,0,0,0,0,0,0,0,0,0,0,0,0,0,0,0,0,0,0,0,0,0,0,0,0,0,0,0,0,0,0,0,0,0,0,0,0,0,0,0,0,0,0,0,-1.1973,-1.1974,0,-1.2082,-1.2083,-1.2084,-1.2138,-1.2138,-1.2138,-1.2138,-1.2249,-1.2252,-1.2255,0,0,0,0,0,0,0,0,0,0,0,0,0,-1.1811,-1.1814,-1.1973,-1.1974,-1.1975,-1.2082,-1.2083,-1.2085,-1.2138,-1.2138,-1.2138,-1.2138,-1.2248,-1.2252,-1.2255,0,0,0,0,0,0,0,0,0,0,0,0,0,-1.1897,-1.1815,-1.1972,-1.2015,-1.202,-1.2081,-1.2083,-1.2085,-1.2138,-1.2138,-1.2138,-1.2138,-1.2247,-1.2251,-1.2256,-1.2283,0,0,-1.2269,-1.2271,0,0,0,0,0,0,0,0,-1.1892,-1.1903,-1.2007,-1.2012,-1.2018,-1.2096,-1.2067,-1.2151,-1.2138,-1.2093,-1.2138,-1.2138,-1.2198,-1.2207,-1.2227,-1.2289,-1.2293,-1.227,-1.2272,-1.2274,-1.2276,0,0,0,0,0,0,0,-1.1886,-1.1898,-1.2016,-1.2009,-1.2015,-1.2029,-1.2041,-1.2083,-1.2144,-1.2097,-1.2101,-1.2113,-1.2201,-1.2223,-1.223,-1.2295,-1.227,-1.2274,-1.2276,-1.2278,-1.2386,-1.2386,0,0,0,0,0,0,-1.1873,-1.1893,-1.2012,-1.2019,-1.1953,-1.2031,-1.2045,-1.2071,-1.2144,-1.2155,-1.2113,-1.2115,-1.2215,-1.2225,-1.2234,-1.2272,-1.2274,-1.2279,-1.2281,-1.2386,-1.2386,-1.2386,0,0,0,0,0,0,-1.1869,-1.1883,-1.2008,-1.1957,-1.1974,-1.2034,-1.2063,-1.2073,-1.2095,-1.2156,-1.2167,-1.2124,-1.2216,-1.2228,-1.2271,-1.2277,-1.2281,-1.2285,-1.2385,-1.2386,-1.2386,-1.2347,0,0,0,0,0,0,-1.1865,-1.1882,-1.1893,-1.1957,-1.1977,-1.2043,-1.2063,-1.2075,-1.2102,-1.2106,-1.2169,-1.218,-1.2216,-1.2264,-1.2275,-1.2283,-1.2288,-1.2385,-1.2385,-1.2386,-1.2348,-1.2346,-1.2345,0,0,0,0,0,-1.1859,-1.1877,-1.1893,-1.1907,-1.1992,-1.2043,-1.2054,-1.2096,-1.2103,-1.2114,-1.2154,-1.2178,-1.2274,-1.2268,-1.2281,-1.229,-1.2385,-1.2385,-1.2386,-1.2349,-1.2347,-1.2345,0,0,0,0,0,0,-1.1811,-1.1886,-1.1905,-1.1944,-1.1987,-1.2052,-1.2068,-1.2092,-1.2133,-1.2135,-1.2185,-1.2199,-1.2237,-1.2268,-1.226,-1.2321,-1.2332,-1.2335,-1.23,-1.2298,-1.2296,-1.2288,-1.2292,0,0,0,0,0,-1.1805,-1.1841,-1.1904,-1.1933,-1.1954,-1.2007,-1.2031,-1.2059,-1.2105,-1.2124,-1.2166,-1.221,-1.225,-1.2276,-1.2316,-1.2353,-1.2368,-1.2366,-1.2364,-1.2362,-1.2364,-1.2387,-1.2387,-1.2387,-1.2387,-1.2387,0,0,-1.1794,-1.1839,-1.1858,-1.1925,-1.1961,-1.1997,-1.2022,-1.2058,-1.2085,-1.2129,-1.2172,-1.2205,-1.2258,-1.2298,-1.2318,-1.2325,-1.2367,-1.2363,-1.2361,-1.2364,-1.2387,-1.2387,-1.2387,-1.2388,-1.2388,-1.2388,0,0,-1.1791,-1.1828,-1.1857,-1.1893,-1.1948,-1.1983,-1.199,-1.2052,-1.2075,-1.212,-1.2154,-1.2187,-1.2255,-1.2291,-1.2318,-1.233,-1.2354,-1.2342,-1.2331,-1.2353,-1.2353,-1.2353,-1.2358,-1.2359,-1.2344,-1.2343,-1.2343,0,-1.1769,-1.1824,-1.1869,-1.1904,-1.1932,-1.1974,-1.2004,-1.2037,-1.2102,-1.2121,-1.2127,-1.2215,-1.2253,-1.2302,-1.2305,-1.2326,-1.2336,-1.2335,-1.2349,-1.235,-1.2351,-1.2356,-1.2358,-1.2342,-1.2342,-1.2342,-1.2342,0,-1.1795,-1.1833,-1.185,-1.1912,-1.1942,-1.1974,-1.2024,-1.205,-1.2076,-1.211,-1.2156,-1.2203,-1.2254,-1.2268,-1.2294,-1.2322,-1.2325,-1.234,-1.2351,-1.2348,-1.2354,-1.2356,-1.2339,-1.234,-1.234,-1.2341,0,0,-1.1765,-1.1852,-1.1857,-1.1886,-1.195,-1.198,-1.2015,-1.2065,-1.2086,-1.213,-1.216,-1.2217,-1.2232,-1.2263,-1.2293,-1.2312,-1.2319,-1.2326,-1.2327,-1.2323,-1.2354,-1.2342,-1.2344,-1.2336,-1.2336,-1.2337,-1.235,0,-1.1771,-1.1834,-1.1876,-1.1923,-1.1958,-1.1999,-1.2029,-1.2072,-1.2105,-1.2141,-1.2178,-1.2218,-1.2234,-1.2253,-1.2274,-1.2314,-1.2326,-1.2314,-1.2365,-1.2366,-1.235,-1.2347,-1.2334,-1.2344,-1.2352,-1.2353,-1.2353,0,-1.1786,-1.1829,-1.188,-1.1941,-1.1957,-1.1983,-1.2033,-1.2066,-1.2116,-1.2139,-1.2174,-1.2205,-1.2243,-1.2252,-1.2306,-1.2296,-1.232,-1.2343,-1.2344,-1.2351,-1.2359,-1.2353,-1.2348,-1.235,-1.2357,-1.2356,-1.2356,0,-1.1759,-1.183,-1.1869,-1.1893,-1.1965,-1.1982,-1.2013,-1.2063,-1.2091,-1.2134,-1.2153,-1.22,-1.2226,-1.2263,-1.2306,-1.2308,-1.2356,-1.2368,-1.2377,-1.2376,-1.2385,-1.2384,-1.2384,-1.2399,-1.2399,-1.2399,-1.2399,0,-1.1762,-1.1791,-1.1858,-1.1883,-1.1917,-1.1965,-1.1998,-1.2032,-1.2076,-1.2108,-1.2146,-1.2175,-1.2231,-1.2267,-1.2301,-1.2341,-1.2352,-1.2373,-1.2381,-1.2369,-1.2367,-1.2385,-1.2386,-1.24,-1.24,-1.24,-1.24,0,-1.1737,-1.1784,-1.1829,-1.1894,-1.1911,-1.1933,-1.1989,-1.2014,-1.205,-1.209,-1.2103,-1.2159,-1.2204,-1.2251,-1.2311,-1.2335,-1.2373,-1.2385,-1.2356,-1.2361,-1.2368,-1.2367,-1.238,-1.2385,-1.2396,-1.2396,-1.2396,0,-1.1736,-1.176,-1.1827,-1.1851,-1.1881,-1.1919,-1.1948,-1.1997,-1.2025,-1.2084,-1.2102,-1.215,-1.2191,-1.226,-1.2307,-1.2354,-1.2368,-1.2369,-1.2375,-1.2362,-1.2368,-1.2366,-1.2369,-1.2367,-1.2367,-1.2366,-1.2366,0,-1.1728,-1.175,-1.179,-1.1839,-1.1872,-1.1912,-1.1954,-1.1972,-1.2028,-1.2059,-1.2105,-1.2137,-1.2199,-1.2246,-1.2299,-1.2331,-1.2358,-1.2364,-1.2369,-1.2357,-1.2339,-1.2349,-1.2351,-1.2363,-1.2364,-1.2364,-1.2364,-1.2364,-1.1716,-1.1739,-1.179,-1.1834,-1.187,-1.1909,-1.1936,-1.1976,-1.2015,-1.207,-1.2096,-1.2143,-1.2193,-1.2266,-1.2298,-1.2336,-1.2343,-1.235,-1.2352,-1.2353,-1.235,-1.2333,-1.2345,-1.2346,-1.2346,-1.2346,-1.2346,0,-1.1711,-1.1746,-1.1785,-1.1843,-1.1877,-1.19,-1.1948,-1.1975,-1.2016,-1.206,-1.21,-1.2153,-1.22,-1.225,-1.23,-1.232,-1.2334,-1.2331,-1.233,-1.2338,-1.234,-1.2331,-1.2319,-1.2319,-1.2319,-1.2319,-1.2319,-1.2319,-1.1712,-1.1753,-1.1781,-1.184,-1.1876,-1.1921,-1.1947,-1.1983,-1.2019,-1.2077,-1.2115,-1.2148,-1.2196,-1.2249,-1.2293,-1.2307,-1.2323,-1.2317,-1.2334,-1.2335,-1.2337,-1.2339,-1.2331,-1.232,-1.232,-1.2329,-1.2329,-1.233]}]]